Wind_Speed
17 17 18 18 18 17 17 16 17 17 17 18 18 18 18 19 19 21 21 22 22 22 23 23 24 24 24 23 22 22 22 21 21 21 22 22 23 22 22 23 24 25 26
16 16 16 16 16 16 16 16 17 17 17 17 17 18 19 19 20 21 21 21 21 22 22 23 23 22 22 22 22 21 21 21 20 20 20 21 21 21 22 23 24 24 25
15 14 14 14 15 16 15 16 17 17 18 18 18 18 19 19 20 20 20 20 20 21 21 21 21 21 21 21 21 20 20 20 19 19 19 20 20 21 20 21 22 23 24
13 13 14 14 14 14 14 15 16 17 17 17 16 16 17 19 18 18 19 19 20 21 20 20 20 20 20 19 19 19 19 19 19 19 19 19 19 19 20 21 20 21 21
12 13 13 13 12 13 14 14 15 15 15 15 15 16 17 17 17 17 17 18 19 19 19 20 19 19 19 19 19 19 19 19 19 19 19 20 20 20 20 20 20 21 20
12 12 12 11 11 12 12 13 13 14 14 15 15 16 16 17 16 17 17 17 18 19 19 20 20 20 19 19 18 18 18 18 18 18 19 19 20 21 21 20 19 20 20
10 10 10 10 10 11 11 12 13 14 14 14 14 14 15 16 16 16 17 18 19 19 19 20 19 19 19 19 19 19 19 19 19 19 20 19 19 20 21 21 21 20 20
10 10 10 10 11 11 11 12 13 13 13 13 13 13 14 15 16 16 17 19 19 19 19 19 19 20 20 19 19 19 20 20 20 20 20 20 20 20 21 21 21 21 20
10 10 10 10 9 10 11 12 12 12 13 12 13 13 14 15 16 16 17 19 19 19 19 20 20 20 20 21 20 20 20 20 20 21 21 20 20 21 21 20 21 21 21
10 9 9 9 9 10 10 11 11 12 12 13 13 14 14 15 16 17 18 19 19 19 19 20 21 21 22 22 22 21 21 20 21 21 21 21 21 22 21 20 21 21 21
9 9 9 8 8 9 10 10 11 11 12 12 13 14 15 16 16 17 18 19 19 19 20 21 21 21 22 22 22 22 22 22 22 22 21 22 22 23 22 22 22 22 22
8 8 7 7 8 9 9 10 10 11 11 12 13 14 15 16 16 17 18 19 20 20 21 21 21 22 23 23 23 24 24 24 23 22 22 22 23 23 23 23 23 23 23
7 6 6 7 8 9 9 9 10 11 11 12 13 13 15 17 17 18 19 20 20 20 21 22 23 24 24 24 25 25 26 26 25 24 24 25 24 24 24 23 22 23 23
5 5 5 6 7 8 8 9 10 10 11 12 13 15 16 17 18 18 20 21 21 21 22 23 24 24 25 26 26 26 27 26 26 26 26 26 25 25 24 23 23 22 22
4 5 5 5 7 8 8 9 10 11 12 13 14 16 17 18 19 20 21 21 21 23 24 25 25 26 26 27 27 27 28 27 27 27 27 26 25 25 24 23 23 22 22
4 5 5 6 7 8 9 10 11 12 13 14 15 17 18 19 20 21 22 22 23 24 25 26 26 27 27 27 28 29 28 28 28 28 27 27 25 25 24 24 24 24 24
4 5 6 7 7 8 10 11 12 12 13 15 16 17 19 20 22 22 23 23 24 25 26 27 28 28 29 29 30 29 28 27 28 28 27 26 25 24 24 25 25 24 24
5 6 6 7 8 10 11 11 12 13 14 16 17 19 20 22 23 24 24 25 25 27 28 28 29 30 30 30 30 29 28 28 28 28 27 26 26 25 25 24 24 24 24
5 6 7 8 9 10 11 12 13 14 16 17 18 20 21 23 24 24 25 26 27 28 29 29 30 31 31 31 30 29 29 28 28 27 27 26 26 26 25 24 24 24 24
5 6 7 8 9 11 12 13 14 15 16 18 20 21 23 24 25 25 27 28 28 29 30 30 31 31 31 31 30 30 29 29 28 28 27 27 26 26 25 24 24 24 23
5 6 7 9 10 11 13 14 15 16 18 19 21 23 24 25 27 28 28 29 30 30 31 32 32 32 31 31 31 30 29 29 29 28 28 27 27 26 25 25 24 24 23
5 6 8 9 10 11 13 15 16 17 19 21 23 25 26 27 28 30 31 31 31 32 32 32 32 32 32 32 31 30 30 29 29 29 29 29 28 27 27 26 25 25 24
5 7 8 9 11 12 14 15 17 19 20 22 24 26 27 28 29 30 31 31 31 32 32 32 33 33 32 32 31 31 30 30 29 29 29 29 28 27 26 26 25 25 25
6 7 8 9 11 13 14 16 18 20 22 23 25 27 28 28 30 31 31 31 31 32 32 33 33 32 32 32 32 31 31 31 31 30 29 29 28 27 26 26 26 25 25
6 7 8 10 12 14 16 18 19 21 23 25 26 28 29 30 31 31 31 31 32 33 33 33 33 33 33 33 33 33 33 32 32 31 30 29 28 28 28 27 27 27 26
6 7 8 10 13 15 17 19 21 22 24 25 27 29 30 30 31 31 31 32 33 34 34 33 33 34 34 34 34 34 34 33 33 32 31 30 29 29 29 28 28 27 26
Wind_Direction
288 289 287 289 290 292 290 293 293 295 295 295 299 301 302 303 305 306 306 306 306 307 308 310 310 310 309 308 304 300 296 294 292 290 286 280 275 273 274 272 269 268 268
285 286 286 289 291 294 293 292 290 296 301 300 305 308 307 306 306 307 308 309 309 310 311 312 312 312 311 310 308 306 301 296 293 293 290 284 281 278 275 273 271 271 270
282 283 284 287 293 297 295 296 298 302 306 305 307 308 311 312 311 310 310 311 313 313 314 315 315 316 315 313 311 309 305 302 298 297 294 291 286 281 280 277 276 274 271
282 283 286 289 294 297 298 300 303 305 308 307 307 310 313 314 314 313 313 313 314 314 315 316 317 318 317 317 315 313 311 308 304 302 298 294 289 285 282 279 277 276 274
282 284 287 291 294 297 301 304 307 310 312 313 312 313 314 316 316 318 318 319 319 319 319 318 318 318 317 317 316 314 311 310 308 305 301 295 292 290 288 284 280 276 277
282 283 288 291 293 298 304 307 310 312 314 317 315 314 315 318 321 321 323 326 325 323 322 321 320 319 317 315 315 315 313 310 305 303 303 298 293 291 289 287 285 282 279
286 287 287 289 296 305 307 310 311 313 315 317 316 315 317 320 322 324 325 328 328 326 324 324 324 321 319 317 315 313 311 310 307 304 302 300 300 295 291 289 288 288 284
289 288 284 291 295 301 306 309 313 316 319 319 318 319 322 322 324 327 327 329 329 327 326 327 326 324 322 319 316 313 311 309 308 305 303 301 301 301 296 292 289 287 284
294 298 296 295 299 301 302 307 314 316 319 320 322 323 325 324 325 327 327 327 327 326 325 326 327 326 325 321 318 316 314 313 311 309 306 302 300 301 298 293 290 287 284
299 298 301 298 301 306 306 307 312 316 319 320 322 321 321 323 325 325 326 328 329 328 326 325 324 324 325 324 322 320 318 314 311 310 307 303 300 299 298 295 292 289 285
308 304 307 306 307 311 312 314 314 316 319 321 322 322 324 327 328 326 327 328 328 329 328 326 325 325 325 325 324 323 321 318 314 311 308 306 303 299 297 297 294 290 287
308 310 309 309 312 316 317 319 319 319 320 323 324 324 326 330 331 330 330 329 327 328 327 326 326 325 325 324 324 323 321 319 316 312 309 307 306 302 296 294 292 291 289
310 311 309 308 313 320 322 323 323 326 325 327 329 331 333 334 333 332 330 330 330 329 329 328 326 325 324 323 321 320 320 318 316 313 310 307 305 304 300 294 291 289 287
319 319 318 319 321 325 327 331 332 332 331 332 334 337 336 335 333 332 331 329 328 329 328 328 327 325 324 324 323 321 319 318 315 313 311 308 305 304 301 295 291 289 287
335 333 330 332 336 335 338 340 339 337 336 337 339 338 336 336 334 332 332 332 330 329 328 328 329 327 325 325 324 323 321 318 316 315 313 311 307 304 301 298 294 291 289
342 343 346 349 348 344 340 337 336 336 339 340 339 338 337 336 336 335 333 332 331 330 330 331 331 330 328 326 325 323 321 319 319 317 315 313 310 306 303 300 296 293 291
359 355 354 353 351 347 343 342 340 338 339 338 338 339 338 336 336 335 334 332 331 331 331 331 331 331 330 328 326 325 323 321 320 319 317 315 312 309 304 300 297 295 293
8 0 353 352 348 347 347 347 346 343 341 339 338 337 337 338 337 338 337 335 333 332 331 331 331 331 330 329 328 326 325 324 322 321 319 317 315 312 309 304 300 297 294
0 357 354 354 354 354 352 348 348 348 346 344 341 340 339 339 339 338 337 336 334 333 332 331 331 331 331 331 329 328 327 325 324 323 321 318 316 313 309 306 302 299 296
3 356 352 352 352 351 350 348 347 346 344 344 344 343 342 340 340 338 337 335 334 334 333 332 331 331 331 330 329 329 327 326 325 324 322 321 319 316 313 309 305 302 298
6 360 355 351 348 346 346 346 346 345 345 345 344 343 342 342 341 340 338 336 335 334 334 334 332 331 331 331 330 329 328 327 325 324 324 323 321 318 315 311 308 304 299
355 350 346 346 346 347 348 347 347 347 346 345 344 343 343 341 340 339 338 336 336 336 336 336 335 334 333 332 332 330 329 328 327 325 324 323 320 318 315 313 310 306 303
344 343 344 345 346 346 348 349 348 347 346 344 344 344 343 343 342 341 340 339 338 339 339 339 338 337 336 336 334 333 331 329 328 326 325 323 321 319 317 315 311 308 305
343 346 346 346 345 346 347 348 347 346 346 345 345 345 345 344 343 343 342 342 342 342 341 341 342 341 340 339 337 336 334 333 331 329 326 324 322 320 319 318 315 312 309
349 348 347 347 347 346 345 346 347 347 347 347 346 346 346 346 346 346 346 346 346 345 345 345 345 344 343 341 340 339 337 335 334 332 330 327 324 322 321 320 318 316 313
344 343 343 344 345 346 346 347 348 348 348 348 348 348 348 348 347 347 347 347 347 347 346 345 345 344 344 343 342 340 339 338 335 333 331 330 328 326 324 322 320 318 315
Height
5776 5775 5774 5772 5772 5771 5770 5769 5768 5766 5764 5763 5761 5759 5757 5754 5751 5749 5746 5743 5740 5737 5734 5730 5727 5723 5720 5717 5714 5711 5709 5707 5706 5704 5702 5700 5699 5698 5698 5697 5697 5697 5697
5771 5770 5769 5768 5767 5767 5766 5764 5763 5762 5760 5758 5756 5754 5752 5749 5747 5744 5742 5739 5735 5732 5729 5725 5722 5719 5715 5712 5709 5706 5703 5701 5699 5698 5696 5694 5693 5692 5691 5691 5690 5690 5689
5767 5766 5765 5765 5764 5763 5762 5761 5759 5758 5755 5753 5751 5749 5747 5745 5742 5740 5737 5734 5731 5727 5724 5721 5718 5714 5711 5707 5704 5701 5699 5696 5694 5693 5691 5689 5688 5686 5685 5684 5683 5683 5682
5763 5763 5762 5761 5760 5759 5758 5757 5755 5753 5751 5748 5746 5745 5743 5740 5738 5735 5732 5729 5726 5723 5720 5717 5713 5710 5707 5703 5700 5697 5695 5692 5690 5688 5686 5684 5683 5681 5680 5678 5677 5676 5675
5760 5759 5758 5757 5756 5755 5754 5753 5751 5749 5747 5744 5742 5741 5739 5736 5734 5731 5728 5725 5722 5719 5716 5713 5709 5706 5703 5700 5697 5694 5691 5688 5686 5683 5682 5680 5678 5676 5674 5673 5671 5670 5670
5756 5756 5755 5754 5753 5752 5751 5749 5748 5746 5743 5741 5739 5737 5735 5733 5730 5728 5725 5722 5718 5715 5712 5709 5705 5702 5699 5696 5693 5690 5687 5684 5682 5679 5677 5675 5673 5671 5669 5667 5666 5665 5664
5753 5752 5752 5751 5750 5749 5748 5746 5745 5743 5740 5738 5736 5734 5732 5729 5727 5724 5721 5718 5715 5712 5708 5705 5702 5698 5695 5692 5689 5686 5683 5680 5677 5675 5673 5670 5668 5665 5664 5662 5661 5659 5658
5750 5749 5748 5747 5747 5746 5745 5743 5742 5740 5737 5735 5733 5731 5728 5726 5724 5721 5718 5715 5712 5708 5705 5701 5698 5694 5691 5688 5685 5682 5679 5676 5673 5670 5667 5665 5663 5660 5658 5656 5655 5654 5653
5747 5746 5745 5744 5743 5743 5742 5741 5739 5737 5735 5733 5730 5728 5726 5723 5720 5718 5715 5712 5708 5705 5702 5698 5694 5691 5687 5684 5681 5678 5675 5672 5668 5665 5662 5660 5657 5655 5652 5650 5649 5648 5647
5744 5743 5742 5741 5741 5740 5739 5738 5736 5734 5732 5730 5727 5725 5723 5720 5717 5715 5712 5709 5705 5702 5698 5695 5691 5687 5684 5680 5677 5673 5670 5667 5664 5660 5657 5655 5652 5649 5647 5644 5643 5641 5640
5741 5740 5739 5739 5738 5737 5736 5735 5733 5731 5729 5727 5725 5722 5720 5717 5714 5712 5708 5705 5702 5698 5695 5691 5687 5684 5680 5676 5673 5669 5665 5661 5658 5655 5652 5649 5646 5643 5641 5638 5636 5635 5633
5739 5738 5737 5737 5736 5735 5734 5732 5731 5729 5726 5724 5722 5720 5717 5714 5712 5708 5705 5702 5698 5695 5691 5687 5684 5680 5676 5672 5668 5664 5660 5656 5652 5649 5646 5643 5640 5637 5634 5632 5629 5627 5626
5737 5736 5735 5735 5734 5733 5732 5730 5729 5727 5725 5723 5720 5718 5715 5712 5709 5706 5702 5699 5695 5691 5688 5684 5680 5676 5671 5668 5663 5659 5655 5651 5647 5643 5639 5636 5633 5630 5627 5624 5622 5620 5618
5736 5735 5734 5734 5733 5732 5730 5729 5727 5725 5723 5721 5718 5715 5713 5710 5706 5703 5700 5696 5692 5688 5684 5679 5675 5671 5667 5662 5658 5653 5649 5644 5640 5636 5633 5629 5625 5622 5619 5617 5614 5612 5611
5735 5735 5734 5733 5732 5731 5729 5727 5726 5724 5721 5719 5716 5713 5710 5707 5704 5700 5697 5693 5689 5684 5680 5675 5671 5666 5662 5657 5652 5647 5643 5638 5634 5629 5625 5621 5618 5615 5612 5609 5607 5604 5603
5735 5735 5734 5733 5731 5730 5728 5727 5724 5722 5720 5717 5714 5711 5708 5705 5701 5697 5693 5689 5685 5680 5675 5670 5666 5661 5656 5651 5647 5642 5637 5632 5628 5623 5619 5614 5611 5607 5605 5602 5599 5597 5595
5735 5734 5733 5732 5731 5730 5728 5726 5724 5721 5718 5716 5713 5709 5706 5702 5698 5694 5690 5685 5681 5676 5671 5666 5661 5656 5651 5646 5641 5635 5631 5626 5621 5617 5612 5608 5604 5600 5597 5595 5592 5590 5588
5735 5734 5733 5732 5731 5729 5727 5725 5723 5720 5717 5714 5711 5707 5704 5700 5696 5691 5686 5682 5677 5672 5667 5661 5656 5651 5645 5640 5635 5629 5624 5620 5615 5610 5606 5601 5597 5594 5590 5587 5585 5582 5580
5735 5734 5733 5732 5731 5729 5727 5724 5722 5719 5716 5713 5710 5706 5702 5697 5693 5688 5683 5678 5673 5668 5662 5657 5651 5645 5640 5634 5628 5623 5618 5613 5609 5604 5600 5595 5591 5587 5583 5580 5577 5575 5573
5735 5734 5733 5732 5730 5728 5726 5724 5721 5718 5715 5711 5708 5704 5699 5695 5690 5685 5680 5674 5669 5663 5657 5652 5646 5640 5634 5628 5623 5618 5613 5608 5603 5598 5593 5589 5584 5580 5577 5573 5570 5568 5565
5735 5734 5733 5731 5730 5728 5725 5723 5720 5717 5713 5710 5706 5701 5696 5692 5686 5681 5676 5670 5664 5659 5653 5647 5641 5635 5628 5623 5617 5612 5607 5602 5596 5592 5587 5582 5578 5574 5570 5566 5563 5560 5557
5735 5734 5733 5731 5729 5727 5724 5722 5719 5715 5712 5708 5703 5699 5694 5689 5683 5678 5672 5666 5660 5654 5648 5641 5635 5629 5623 5617 5611 5606 5601 5596 5590 5585 5580 5576 5571 5567 5563 5559 5556 5552 5550
5735 5733 5732 5731 5729 5726 5724 5721 5717 5714 5710 5706 5701 5696 5691 5686 5680 5674 5668 5662 5655 5649 5643 5637 5631 5624 5618 5612 5606 5600 5595 5590 5584 5579 5574 5569 5564 5560 5556 5552 5548 5545 5542
5734 5733 5732 5730 5728 5726 5723 5720 5716 5712 5708 5704 5699 5693 5688 5682 5676 5670 5664 5658 5652 5645 5639 5632 5626 5620 5613 5607 5601 5595 5589 5583 5578 5573 5567 5562 5558 5553 5549 5545 5541 5537 5534
5733 5732 5731 5729 5727 5725 5722 5718 5715 5710 5706 5701 5696 5691 5685 5679 5674 5668 5661 5655 5648 5642 5635 5629 5622 5616 5609 5603 5596 5590 5584 5578 5572 5566 5561 5556 5551 5546 5542 5537 5533 5529 5526
5733 5731 5730 5728 5726 5723 5720 5717 5713 5709 5704 5699 5694 5689 5683 5677 5671 5665 5659 5652 5646 5639 5632 5626 5619 5612 5606 5599 5592 5585 5579 5572 5566 5560 5554 5549 5544 5539 5535 5530 5526 5522 5518